Stations météo

réclame
Mon MeteoGroup
Hyeres, France (7667): Température de l'air & dewpoint: 18.01.2018 10:00:00 - 24.01.2018 10:00:00 (CET)Hyeres, France (7667): Température de l'air 5cm: 18.01.2018 10:00:00 - 24.01.2018 10:00:00 (CET)Hyeres, France (7667): Vitesse du vent & gusts: 18.01.2018 10:00:00 - 24.01.2018 10:00:00 (CET)Hyeres, France (7667): Direction du vent: 18.01.2018 10:00:00 - 24.01.2018 10:00:00 (CET)Hyeres, France (7667): reduced air pressure: 18.01.2018 10:00:00 - 24.01.2018 10:00:00 (CET)Hyeres, France (7667): visibility: 18.01.2018 10:00:00 - 24.01.2018 10:00:00 (CET)Hyeres, France (7667): Quantités de précipitations: 18.01.2018 10:00:00 - 24.01.2018 10:00:00 (CET)
Date & Time tt [°C] td [°C] tt 5cm [°C] ff [km/h] ff [knt] fx [km/h] fx [knt] dd ppp [hPa] vv [km] rr [mm]
24.01.2018 10:00:00 10,7 9,1 8,2 6 3 11 6 N 1030,0 2,5 0,0
24.01.2018 09:00:00 9,9 8,5 7,0 3 2 13 7 N 1029,6 12 0,0
24.01.2018 08:00:00 8,9 8,0 5,2 6 4 13 7 NNE 1029,2 11 0,0
24.01.2018 07:00:00 7,2 6,3 4,4 8 4 11 6 N 1028,8 14 0,0
24.01.2018 06:00:00 5,9 5,0 1,0 8 4 10 5 N 1028,6 19 0,0
24.01.2018 05:00:00 4,0 3,3 0,4 5 3 10 5 N 1028,1 17 0,0
24.01.2018 04:00:00 4,6 3,9 0,6 5 3 12 6 N 1027,7 18 0,0
24.01.2018 03:00:00 4,5 3,6 1,5 9 5 13 7 N 1027,7 17 0,0
24.01.2018 02:00:00 4,8 4,1 1,2 8 4 11 6 NNE 1027,2 12 0,0
24.01.2018 01:00:00 5,2 4,5 1,9 9 5 10 6 NNE 1027,2 8 0,2
24.01.2018 00:00:00 5,9 5,2 1,6 3 2 9 5 NNW 1026,8 8 0,0
23.01.2018 23:00:00 6,7 6,0 2,9 5 3 13 7 NNE 1026,0 6 0,0
23.01.2018 22:00:00 7,5 6,4 3,3 5 3 16 9 NNE 1025,5 2,5 0,0
23.01.2018 21:00:00 8,0 6,9 3,2 5 3 10 5 N 1025,3 3,0 0,0
23.01.2018 20:00:00 9,3 7,9 4,4 5 3 8 4 N 1024,7 7 0,0
23.01.2018 19:00:00 10,1 8,5 5,3 8 5 13 7 NE 1023,7 9 0,0
23.01.2018 18:00:00 12,5 10,6 9,4 11 6 16 9 E 1022,7 35 0,0
23.01.2018 17:00:00 13,9 10,9 13,0 8 4 22 12 E 1022,2 46 0,0
23.01.2018 16:00:00 14,9 11,1 15,6 14 8 24 13 ESE 1021,3 60 0,0
23.01.2018 15:00:00 16,4 9,3 18,3 11 6 21 11 SE 1020,5 59 0,0
23.01.2018 14:00:00 16,1 9,3 18,2 13 7 19 10 SE 1020,5 20 0,0
23.01.2018 13:00:00 15,9 9,8 18,0 13 7 - - ESE 1020,6 60 -
23.01.2018 12:00:00 16,4 10,3 18,1 11 6 27 15 ENE 1020,7 60 0,0
23.01.2018 11:00:00 17,0 4,0 18,1 13 7 40 22 N 1020,6 - 0,0
23.01.2018 10:00:00 15,8 4,2 11,4 12 6 31 17 NNW 1019,6 60 0,0
23.01.2018 09:00:00 14,3 4,3 9,7 18 10 40 22 NNW 1019,0 60 0,0
23.01.2018 08:00:00 13,7 4,3 9,6 16 8 32 17 NW 1018,5 60 0,0
23.01.2018 07:00:00 13,5 4,6 10,1 15 8 27 14 NNW 1017,7 60 0,0
23.01.2018 06:00:00 14,7 5,2 8,0 11 6 40 22 N 1017,2 60 0,0
23.01.2018 05:00:00 14,5 5,6 6,0 16 9 34 18 NNW 1016,9 60 0,0
23.01.2018 04:00:00 12,6 6,2 5,8 7 4 23 12 WSW 1017,0 60 0,0
23.01.2018 03:00:00 13,9 5,0 7,2 6 3 13 7 NNW 1016,4 60 0,0
23.01.2018 02:00:00 15,2 5,1 10,2 9 5 37 20 NNW 1015,4 60 0,0
23.01.2018 01:00:00 15,3 5,8 11,1 30 16 45 24 WNW 1014,7 60 0,0
23.01.2018 00:00:00 14,6 6,7 12,0 31 17 49 27 WSW 1015,8 60 0,0
22.01.2018 23:00:00 15,4 6,7 12,5 7 4 64 34 SW 1016,1 60 0,0
22.01.2018 22:00:00 15,8 7,0 13,1 32 18 68 37 WNW 1015,4 60 0,0
22.01.2018 21:00:00 16,2 7,4 13,3 48 26 80 43 WNW 1014,7 60 0,0
22.01.2018 20:00:00 15,7 8,4 13,0 32 17 46 25 W 1015,3 60 0,0
22.01.2018 19:00:00 15,8 8,0 13,2 34 18 51 28 WSW 1014,8 60 0,0
22.01.2018 18:00:00 16,1 7,0 13,9 34 18 50 27 WSW 1015,5 60 0,0
22.01.2018 17:00:00 17,0 6,2 14,8 29 16 48 26 W 1015,2 60 0,0
22.01.2018 16:00:00 18,4 6,6 16,4 31 17 47 25 W 1014,9 60 0,0
22.01.2018 15:00:00 19,1 8,1 18,0 31 17 54 29 W 1014,7 60 0,0
22.01.2018 14:00:00 19,7 8,1 19,9 25 14 36 20 W 1015,1 60 0,0
22.01.2018 13:00:00 20,1 8,1 16,8 23 12 34 18 WNW 1015,9 60 0,0
22.01.2018 12:00:00 18,0 7,7 16,7 19 11 37 20 WNW 1016,5 59 0,0
22.01.2018 11:00:00 19,3 8,0 16,5 25 14 43 23 WNW 1016,4 60 0,0
22.01.2018 10:00:00 17,0 7,3 13,3 28 15 41 22 WNW 1015,8 60 0,0
22.01.2018 09:00:00 15,1 6,9 12,2 25 14 37 20 W 1015,1 60 0,0
22.01.2018 08:00:00 15,3 6,0 12,3 24 13 42 23 W 1014,7 60 0,0
22.01.2018 07:00:00 15,0 5,8 12,0 34 18 54 29 W 1014,9 60 0,0
22.01.2018 06:00:00 16,2 4,9 12,5 32 17 47 25 WNW 1014,9 60 0,0
22.01.2018 05:00:00 15,0 6,5 12,5 30 16 47 26 WNW 1014,9 60 0,0
22.01.2018 04:00:00 16,0 7,2 12,5 35 19 51 28 W 1014,8 60 0,0
22.01.2018 03:00:00 15,1 7,9 12,5 35 19 55 30 W 1015,2 60 0,0
22.01.2018 02:00:00 15,4 7,7 13,1 39 21 61 33 W 1014,9 60 0,0
22.01.2018 01:00:00 16,9 7,3 14,4 36 19 60 33 WNW 1014,5 60 0,0
22.01.2018 00:00:00 17,8 6,9 14,4 42 23 63 34 WNW 1014,4 60 0,0
21.01.2018 23:00:00 17,2 7,3 13,9 29 16 45 24 WNW 1014,3 60 0,0
21.01.2018 22:00:00 16,8 7,4 14,0 27 15 64 35 WNW 1014,2 60 0,0
21.01.2018 21:00:00 18,9 7,3 13,9 34 18 64 35 NW 1013,6 60 0,0
21.01.2018 20:00:00 17,8 7,5 13,6 33 18 69 37 WNW 1013,7 60 0,0
21.01.2018 19:00:00 17,6 6,5 14,1 23 12 55 30 W 1012,6 60 0,0
21.01.2018 18:00:00 18,1 5,6 14,8 25 13 61 33 W 1011,8 60 0,0
21.01.2018 17:00:00 18,7 4,8 16,8 30 16 81 44 NW 1011,2 50 0,0
21.01.2018 16:00:00 19,6 4,1 19,2 41 22 67 36 WNW 1010,5 25 0,0
21.01.2018 15:00:00 19,5 3,6 19,6 30 16 81 44 NW 1010,6 26 0,0
21.01.2018 14:00:00 19,3 2,6 19,6 42 23 71 38 NW 1010,6 24 0,0
21.01.2018 13:00:00 18,8 0,8 18,7 41 22 74 40 NW 1010,6 27 0,0
21.01.2018 12:00:00 18,2 -0,1 17,8 32 18 61 33 NW 1010,8 28 0,0
21.01.2018 11:00:00 17,3 -0,5 16,7 35 19 75 41 NW 1010,1 31 0,0
21.01.2018 10:00:00 16,4 0,9 13,3 27 15 67 36 NW 1009,2 27 0,0
21.01.2018 09:00:00 15,9 1,9 13,1 38 20 61 33 NW 1007,9 18 0,0
21.01.2018 08:00:00 16,1 2,5 13,4 49 26 101 55 NW 1006,7 60 0,0
21.01.2018 07:00:00 16,5 3,2 13,3 30 16 70 38 NNW 1006,7 60 0,0
21.01.2018 06:00:00 16,8 5,1 12,3 31 17 74 40 WNW 1006,1 60 0,0
21.01.2018 05:00:00 16,3 7,0 12,4 26 14 54 29 WNW 1006,1 60 0,0
21.01.2018 04:00:00 15,8 8,3 12,7 40 21 72 39 W 1006,0 60 0,0
21.01.2018 03:00:00 15,5 8,9 12,5 40 21 67 36 W 1006,2 60 0,0
21.01.2018 02:00:00 15,0 9,1 12,3 41 22 76 41 W 1006,6 60 0,0
21.01.2018 01:00:00 14,6 9,2 11,7 44 24 71 39 W 1007,4 60 0,0
21.01.2018 00:00:00 14,3 9,1 11,7 40 22 62 33 W 1008,5 60 0,0
20.01.2018 23:00:00 14,2 9,2 11,6 38 20 59 32 W 1008,7 60 0,0
20.01.2018 22:00:00 13,9 9,1 11,3 38 21 62 33 W 1009,3 54 0,0
20.01.2018 21:00:00 13,5 9,3 11,1 38 21 79 42 W 1009,9 44 0,0
20.01.2018 20:00:00 13,3 9,5 11,0 46 25 78 42 W 1010,1 35 0,0
20.01.2018 19:00:00 13,0 8,7 9,2 41 22 69 37 W 1011,0 39 0,0
20.01.2018 18:00:00 12,2 8,8 7,9 31 17 59 32 W 1011,7 14 0,0
20.01.2018 17:00:00 10,7 7,2 7,8 31 17 48 26 W 1012,5 28 0,0
20.01.2018 16:00:00 10,5 5,5 9,0 22 12 40 21 W 1013,5 56 0,0
20.01.2018 15:00:00 10,9 1,9 9,4 24 13 39 21 WSW 1014,1 60 0,0
20.01.2018 14:00:00 12,4 0,8 11,5 21 12 43 23 W 1014,9 60 0,0
20.01.2018 13:00:00 13,9 0,2 14,5 19 10 36 19 W 1015,8 60 0,0
20.01.2018 12:00:00 12,8 -0,5 11,4 25 14 45 24 W 1016,9 60 0,0
20.01.2018 11:00:00 12,2 -1,7 12,8 27 14 42 23 WNW 1017,3 60 0,0
20.01.2018 10:00:00 11,2 -2,3 8,0 15 8 29 16 WNW 1017,0 48 0,0
20.01.2018 09:00:00 10,3 -3,8 6,5 10 5 26 14 WNW 1017,1 59 0,0
20.01.2018 08:00:00 9,8 -4,2 6,5 13 7 45 24 NW 1016,8 60 0,0
20.01.2018 07:00:00 10,2 -5,4 6,5 21 12 49 26 W 1016,7 60 0,0
20.01.2018 06:00:00 10,3 -5,7 5,4 18 10 34 19 W 1016,1 60 0,0
20.01.2018 05:00:00 10,1 -4,7 5,2 11 6 41 22 W 1015,6 60 0,0
20.01.2018 04:00:00 11,0 -4,7 8,0 21 12 54 29 WNW 1015,5 60 0,0
20.01.2018 03:00:00 11,4 -3,5 7,7 23 13 43 23 WNW 1016,0 60 0,0
20.01.2018 02:00:00 11,2 -1,9 7,2 21 12 49 26 WNW 1016,3 60 0,0
20.01.2018 01:00:00 11,5 -0,3 7,9 14 8 28 15 W 1016,7 60 0,0
20.01.2018 00:00:00 11,7 -0,2 7,7 16 9 29 16 WNW 1016,8 60 0,0
19.01.2018 23:00:00 11,4 -0,1 4,7 15 8 22 12 WNW 1016,8 60 0,0
19.01.2018 22:00:00 12,0 -0,9 8,1 12 6 28 15 W 1016,3 60 0,0
19.01.2018 21:00:00 12,5 -1,1 9,0 17 9 31 17 WNW 1016,2 60 0,0
19.01.2018 20:00:00 12,7 -0,6 9,3 14 8 31 17 WNW 1015,3 60 0,0
19.01.2018 19:00:00 13,3 0,3 10,2 22 12 45 24 WNW 1014,7 60 0,0
19.01.2018 18:00:00 13,9 0,5 10,9 32 17 50 27 WNW 1013,6 60 0,0
19.01.2018 17:00:00 14,5 0,3 12,5 29 15 50 27 WNW 1013,0 40 0,0
19.01.2018 16:00:00 14,5 1,0 12,8 32 17 54 29 WNW 1012,7 59 0,0
19.01.2018 15:00:00 15,5 0,5 14,0 30 16 53 29 WNW 1012,2 58 0,0
19.01.2018 14:00:00 15,8 0,7 15,2 26 14 53 29 W 1012,2 60 0,0
19.01.2018 13:00:00 16,1 1,4 16,0 38 20 61 33 W 1012,4 52 0,0
19.01.2018 12:00:00 16,0 2,7 15,8 25 13 51 28 WNW 1013,2 58 0,0
19.01.2018 11:00:00 15,2 3,0 14,0 26 14 60 32 NW 1013,2 10 0,0
19.01.2018 10:00:00 15,0 3,5 10,5 26 14 43 23 NW 1012,6 10 0,0
19.01.2018 09:00:00 13,2 6,1 10,4 16 9 38 21 WNW 1012,5 10 0,0
19.01.2018 08:00:00 13,6 5,7 10,0 26 14 42 23 W 1012,7 10 0,0
19.01.2018 07:00:00 13,2 5,8 9,7 16 9 36 19 NW 1012,8 10 0,0
19.01.2018 06:00:00 13,2 5,6 9,6 16 9 41 22 WNW 1013,2 10 0,0
19.01.2018 05:00:00 12,5 5,6 9,5 31 17 48 26 WNW 1013,3 10 0,0
19.01.2018 04:00:00 12,3 5,7 9,2 34 18 50 27 WNW 1014,0 10 0,0
19.01.2018 03:00:00 11,8 5,6 9,2 29 16 47 26 W 1014,5 10 0,0
19.01.2018 02:00:00 11,9 5,5 9,0 26 14 42 23 W 1014,8 10 0,0
19.01.2018 01:00:00 12,1 5,0 8,8 28 15 40 22 W 1015,0 10 0,0
19.01.2018 00:00:00 12,1 4,8 8,9 28 15 40 22 W 1015,5 10 0,0
18.01.2018 23:00:00 11,7 4,9 8,8 21 11 41 22 W 1015,4 10 0,0
18.01.2018 22:00:00 11,8 5,9 9,0 22 12 49 26 WNW 1015,9 10 0,0
18.01.2018 21:00:00 11,7 6,4 9,1 13 7 33 18 WNW 1016,6 10 0,0
18.01.2018 20:00:00 11,8 6,3 9,1 15 8 48 26 WNW 1017,0 10 0,0
18.01.2018 19:00:00 11,8 5,9 9,2 29 16 49 27 W 1017,2 10 0,0
18.01.2018 18:00:00 12,0 5,8 9,5 35 19 55 30 W 1017,5 10 0,0
18.01.2018 17:00:00 12,3 6,1 10,9 35 19 62 33 W 1017,4 10 0,0
18.01.2018 16:00:00 12,6 6,4 11,8 39 21 76 41 W 1017,6 10 0,0
18.01.2018 15:00:00 12,9 5,6 13,0 48 26 71 39 W 1017,6 10 0,0
18.01.2018 14:00:00 12,8 5,0 12,9 44 24 67 36 W 1018,3 10 0,0
18.01.2018 13:00:00 13,3 5,7 14,4 40 22 56 30 W 1019,5 57 0,0
18.01.2018 12:00:00 12,7 4,1 12,8 26 14 55 30 W 1020,2 10 0,0
18.01.2018 11:00:00 11,6 3,6 11,8 34 18 64 34 W 1021,0 10 0,0
18.01.2018 10:00:00 10,8 1,9 8,0 29 16 51 28 W 1021,3 10 0,0

tt = Température de l'air
td = dewpoint
tt 5cm = Température de l'air 5cm
ff = Vitesse du vent
fx = gusts
dd = Direction du vent
ppp = reduced air pressure
vv = visibility
rr = Quantités de précipitations

stations d'obs. à proximité